SL-16 DEB, 22331

Orbit data source: Space-Track

SL-16 DEB, 22331 is space debris in LEO originally from a launch on Fri, 25 Dec 1992 UTC launched from the Tyuratam Missile And Space Complex (TTMTR). Debris objects in space refer to the collection of defunct objects orbiting the Earth. Examples of debris include non-operational satellites, rocket bodies, and fragments generated from explosions, collisions, or faulty payload assembly.

Loading next visibility...
Identifier
22331, 1992-093U
Orbit
LEO
Country
Flag of CISCIS
Related business
Manufacturer
Unknown
Mission
Spacecraft
Bus & Motor
Unknown
Mass
Unknown
Launch date (UTC)
1992-12-25 (33 years ago)
Launch vehicle
Unknown
Launch site
Tyuratam Missile And Space Complex (TTMTR)
Object type
Payload
Rocket body
Debris
Shape & HBR
Unknown shape, 0.5 m
Radar Cross Section
Medium (>0.1 m² and <1 m²)

Expand to show TLE details & history
Last TLE update: 8 hours ago

TLE from 8 hours ago
0 SL-16 DEB
1 22331U 92093U   26126.95734007 -.00000044  00000-0  21787-5 0  9995
2 22331  70.9222 197.2957 0076770 350.8192 191.0883 14.04991916709280
Epoch: 2026-05-06T22:58Z
TLE epoch observation values (Epoch: 2026-05-06T22:58:34.182Z)
Latitude
-1.75996°
Longitude
168.4486°
Altitude
933.868 km
Speed
7.357 km/s
True Right ascension
01h 11m 36s
True Declination
-1° 44' 59"
Sunlit
Object was in daylight at epoch
Visualization orbit readout
Latitude
Unknown
Longitude
Unknown
Altitude
Unknown
Speed
Unknown
Apparent Right ascension
Unknown
Apparent Declination
Unknown
Sunlit
N/A
Visualization observer readout
Local Sidereal Time
15:25:10
Azimuth
Unknown
Elevation
Unknown
Doppler factor
Unknown
Orbital elements
Apogee altitude
930.181 km
Perigee altitude
818.824 km
Semi-major axis
7,252.639 km
Eccentricity
0.00768
Inclination
70.9222°
RAAN
197.2957°
Arg. of periapsis
350.8192°
True anomaly
190.92069°
Mean anomaly
191.0883°
Eccentric anomaly
191.00434°
Mean motion
3.51398 °/min
Orbital period
102.45 mins
BSTAR
0.0000021787
Loading maneuver chart data...
Computing Atmospheric mass density...
Loading historical data...
Loading historical data...
Loading historical data...
Loading historical data...
Loading historical data...
Loading historical data...
Loading historical data...

Documentation

Showing up to 5 results
|